Flag for Germany Weather past 2 weeks in Tönisvorst, North Rhine-Westphalia, Germany

Now
61 °F

Clear.


Feels Like: 61 °F
Forecast: 41 / 59 °F
Wind: 9 mph from North

Location: Monchengladbach Airport

Current Time: Apr 21, 2015 at 10:10:29 PM

Latest Report: Apr 21, 2015 at 8:20 PM


Visibility: 10 mi

Pressure: 30.39 "Hg

Humidity: 48%

Dew point: 41 °F

Location of TönisvorstLocation

Historic Weather in Tönisvorst — Graph

°F

Tönisvorst temperature yesterday

Maximum temperature yesterday: 66 °F (at 3:50 PM)
Minimum temperature yesterday: 43 °F (at 7:50 AM)
Average temperature yesterday: 60 °F

Past Weeks' High & Low Weather Summary

 TemperatureHumidityPressure
High75 °F (Apr 15, 3:20 PM)100% (Apr 7, 7:50 AM)30.66 "Hg (Apr 7, 7:50 AM)
Low32 °F (Apr 7, 7:50 AM)26% (Apr 21, 5:20 PM)29.92 "Hg (Apr 15, 6:50 PM)
Average57 °F57%30.27 "Hg
* Reported Apr 6 8:20 PM — Apr 21 8:20 PM, Tönisvorst, Weather by CustomWeather, © 2015

Note: Actual official high and low records may vary slightly from our data, if they occured in-between our weather recording intervals... More about our weather records

Advertising

Tönisvorst weather history for previous 24 hours

 ConditionsComfort  
Time TempWeatherWind HumidityBarometerVisibility
8:20 PM
Tue, Apr 21
61 °FClear.9 mph48%30.39 "Hg10 mi
7:50 PM64 °FClear.12 mph43%30.39 "Hg10 mi
7:20 PM66 °FClear.9 mph37%30.39 "Hg10 mi
6:50 PM66 °FClear.9 mph35%30.39 "Hg10 mi
6:20 PM68 °FPassing clouds.9 mph35%30.39 "HgN/A
5:50 PM68 °FPassing clouds.10 mph33%30.39 "HgN/A
5:20 PM68 °FPassing clouds.12 mph26%30.42 "HgN/A
4:50 PM68 °FPassing clouds.12 mph28%30.42 "HgN/A
4:20 PM68 °FPassing clouds.8 mph33%30.42 "HgN/A
3:50 PM68 °FPassing clouds.8 mph33%30.42 "HgN/A
3:20 PM68 °FPassing clouds.8 mph30%30.42 "HgN/A
2:50 PM68 °FPassing clouds.8 mph35%30.42 "HgN/A
2:20 PM66 °FPassing clouds.6 mph43%30.42 "HgN/A
1:50 PM64 °FPassing clouds.8 mph40%30.45 "HgN/A
1:20 PM64 °FPassing clouds.7 mph46%30.45 "HgN/A
12:50 PM63 °FPassing clouds.9 mph52%30.45 "HgN/A
12:20 PM63 °FPassing clouds.8 mph56%30.45 "HgN/A
11:50 AM61 °FPassing clouds.8 mph55%30.45 "HgN/A
11:20 AM59 °FPassing clouds.6 mph59%30.45 "HgN/A
10:50 AM57 °FPassing clouds.5 mph63%30.45 "HgN/A
10:20 AM54 °FSunny.3 mph72%30.45 "Hg10 mi
9:50 AM52 °FPassing clouds.5 mph77%30.45 "HgN/A
9:20 AM50 °FPassing clouds.5 mph76%30.45 "HgN/A
8:50 AM48 °FSunny.3 mph82%30.45 "Hg10 mi
8:20 AM46 °FSunny.5 mph82%30.45 "Hg10 mi
7:50 AM45 °FSunny.2 mph87%30.42 "Hg10 mi
Weather by CustomWeather, © 2015

See weather overviewHow to use our weather pages